Probability
0 0 71 74 71 71 74 74 68 61 61 58 55 48 45 42 35 26 26 23 16 13 13 19 13 6 6 3 0 0 0 0 0 0 0 0 0 0 0 0 0 0 0
0 3 74 84 81 74 77 77 61 55 58 52 45 42 39 26 26 23 19 13 13 13 13 10 6 6 0 0 0 0 0 0 0 0 0 0 0 0 0 0 0 0 0
0 3 68 84 84 77 74 71 58 52 48 39 39 29 26 26 26 23 16 13 13 10 10 6 3 0 0 0 0 0 0 0 0 0 0 0 0 0 0 0 0 0 0
0 6 48 87 84 74 68 48 48 48 35 32 32 26 26 26 23 13 13 13 10 10 3 0 0 0 0 0 0 0 0 0 0 0 0 0 0 0 0 0 0 0 0
0 6 39 87 84 74 61 48 42 42 32 32 23 23 23 16 13 13 13 10 10 3 0 0 0 0 0 0 0 0 0 0 0 0 0 0 0 0 0 0 0 0 0
0 10 42 87 81 71 61 42 39 42 26 19 19 19 13 10 10 10 10 10 3 0 0 0 0 0 0 0 0 0 0 0 0 0 0 0 0 0 0 0 0 0 0
3 10 45 81 74 68 52 45 35 32 23 19 13 16 10 10 10 10 10 3 3 0 0 0 0 0 0 0 0 0 0 0 0 0 0 0 0 0 0 0 0 0 0
6 16 39 81 74 61 58 45 39 29 19 13 10 10 10 10 10 6 6 3 0 0 0 0 0 0 0 0 0 0 0 0 0 0 0 0 0 0 0 0 0 0 0
6 13 29 48 55 61 52 42 32 19 13 10 10 10 10 10 6 6 6 0 0 0 0 0 0 0 0 0 0 0 0 0 0 0 0 0 0 0 0 0 0 0 0
10 16 26 39 39 39 32 23 16 13 10 6 6 6 3 3 6 6 0 0 0 0 0 0 0 0 0 0 0 0 0 0 0 0 0 0 0 0 0 0 0 0 0
6 16 16 29 32 23 10 6 3 3 6 6 6 3 3 3 0 0 0 0 0 0 0 0 0 0 0 0 0 0 0 0 0 0 0 0 0 0 0 0 0 0 0
10 16 23 19 29 13 10 3 0 0 3 3 0 0 0 0 0 0 0 0 0 0 0 0 0 0 0 0 0 0 0 0 0 0 0 0 0 0 0 0 0 0 0
13 16 23 19 23 10 3 3 0 0 0 0 0 0 0 0 0 0 0 0 0 0 0 0 0 0 0 0 0 0 0 0 0 0 0 0 0 0 0 0 0 0 0
6 13 19 16 16 6 3 3 0 0 0 0 0 0 0 0 0 0 0 0 0 0 0 0 0 0 0 0 0 0 0 0 0 0 0 0 0 0 0 0 0 0 0
0 10 19 16 13 6 3 0 0 0 0 0 0 0 0 0 0 0 0 0 0 0 0 0 0 0 0 0 0 0 0 0 0 0 0 0 0 0 0 0 0 0 0
0 6 16 13 13 6 3 0 0 0 0 0 0 0 0 0 0 0 0 0 0 0 0 0 0 0 0 0 0 0 0 0 0 0 0 0 0 0 0 0 0 0 0
0 6 13 13 16 6 3 0 0 0 0 0 0 0 0 0 0 0 0 0 0 0 0 0 0 0 0 0 0 0 0 0 0 0 0 0 0 0 0 0 0 0 0
0 3 10 10 13 6 6 0 0 0 0 0 0 0 0 0 0 0 0 0 0 0 0 0 0 0 0 0 0 0 0 0 0 0 0 0 0 0 0 0 0 0 0
3 3 6 6 10 6 6 3 0 0 0 0 0 0 0 0 0 0 0 0 0 0 0 0 0 0 0 0 0 0 0 0 0 0 0 0 0 0 0 0 0 0 0
0 3 6 6 3 3 3 3 0 0 0 0 0 0 0 0 0 0 0 0 0 0 0 0 0 0 0 0 0 0 0 0 0 0 0 0 0 0 0 0 0 0 0
0 0 0 0 3 3 3 0 0 0 0 0 0 0 0 0 0 0 0 0 0 0 0 0 0 0 0 0 0 0 0 0 0 0 0 0 0 0 0 0 0 0 0
0 0 0 0 3 0 3 0 0 0 0 0 0 0 0 0 0 0 0 0 0 0 0 0 0 0 0 0 0 0 0 0 0 0 0 0 0 0 0 0 0 0 0
0 0 0 0 0 0 0 0 0 0 0 0 0 0 0 0 0 0 0 0 0 0 0 0 0 0 0 0 0 0 0 0 0 0 0 0 0 0 0 0 0 0 0
0 0 0 0 0 0 0 0 0 0 0 0 0 0 0 0 0 0 0 0 0 0 0 0 0 0 0 0 0 0 0 0 0 0 0 0 0 0 0 0 0 0 0
0 0 0 0 0 0 0 0 0 0 0 0 0 0 0 0 0 0 0 0 0 0 0 0 0 0 0 0 0 0 0 0 0 0 0 0 0 0 0 0 0 0 0
0 0 0 0 0 0 0 0 0 0 0 0 0 0 0 0 0 0 0 0 0 0 0 0 0 0 0 0 0 0 0 0 0 0 0 0 0 0 0 0 0 0 0
Height
5845 5848 5851 5854 5856 5859 5861 5863 5865 5866 5868 5869 5871 5872 5873 5874 5875 5876 5877 5877 5878 5879 5879 5880 5880 5880 5880 5879 5879 5879 5879 5879 5878 5878 5877 5876 5875 5874 5873 5872 5871 5870 5868
5842 5844 5847 5850 5853 5855 5857 5860 5862 5864 5865 5867 5869 5870 5871 5872 5873 5874 5875 5876 5877 5877 5878 5879 5879 5879 5879 5878 5878 5878 5878 5878 5877 5877 5876 5875 5874 5873 5872 5871 5870 5868 5867
5837 5840 5843 5846 5849 5851 5854 5856 5859 5861 5863 5864 5866 5868 5869 5870 5871 5873 5874 5874 5875 5876 5877 5877 5877 5877 5877 5877 5877 5877 5877 5877 5876 5876 5875 5874 5873 5872 5871 5869 5868 5867 5865
5832 5835 5838 5842 5845 5847 5850 5853 5855 5857 5859 5861 5863 5865 5867 5868 5869 5870 5872 5873 5874 5875 5875 5876 5876 5876 5876 5876 5876 5876 5876 5876 5875 5874 5874 5873 5872 5870 5869 5868 5867 5865 5863
5827 5830 5833 5837 5840 5843 5846 5849 5851 5854 5856 5858 5860 5862 5864 5865 5867 5868 5870 5871 5872 5873 5873 5874 5874 5874 5874 5875 5875 5875 5875 5874 5874 5873 5872 5871 5870 5869 5868 5866 5865 5863 5861
5821 5825 5828 5832 5835 5838 5841 5844 5847 5850 5852 5855 5857 5859 5861 5862 5864 5866 5867 5869 5870 5871 5872 5872 5872 5873 5873 5873 5873 5873 5873 5873 5872 5871 5871 5869 5868 5867 5866 5864 5863 5861 5859
5815 5819 5823 5826 5830 5833 5837 5840 5843 5846 5848 5851 5853 5855 5858 5859 5861 5863 5865 5866 5867 5868 5869 5870 5870 5871 5871 5871 5871 5871 5871 5871 5870 5870 5869 5868 5866 5865 5864 5862 5861 5859 5857
5808 5812 5816 5820 5824 5828 5832 5835 5838 5841 5844 5847 5849 5852 5854 5856 5858 5860 5862 5863 5865 5866 5867 5868 5868 5868 5869 5869 5869 5869 5869 5869 5868 5868 5867 5866 5864 5863 5862 5860 5858 5856 5854
5800 5805 5810 5814 5818 5822 5826 5830 5833 5836 5839 5842 5845 5847 5850 5852 5855 5857 5859 5860 5862 5863 5864 5865 5866 5866 5866 5867 5867 5867 5867 5867 5866 5865 5864 5863 5862 5861 5859 5857 5855 5853 5851
5793 5798 5803 5808 5812 5816 5820 5824 5828 5831 5835 5838 5841 5843 5846 5848 5851 5853 5855 5857 5858 5860 5861 5862 5863 5863 5864 5864 5865 5865 5865 5864 5864 5863 5862 5861 5859 5858 5856 5854 5852 5850 5847
5785 5791 5796 5801 5806 5810 5814 5818 5822 5826 5830 5833 5836 5839 5842 5844 5847 5849 5851 5853 5855 5856 5858 5859 5860 5860 5861 5862 5862 5862 5862 5862 5861 5860 5859 5858 5857 5855 5853 5851 5849 5846 5844
5778 5784 5789 5794 5799 5804 5808 5812 5816 5820 5824 5828 5831 5834 5837 5840 5842 5845 5847 5849 5851 5853 5854 5856 5856 5857 5858 5859 5859 5859 5859 5859 5858 5857 5856 5855 5854 5852 5850 5848 5846 5843 5840
5769 5775 5781 5787 5792 5797 5801 5806 5810 5815 5818 5822 5826 5829 5832 5835 5838 5840 5843 5845 5847 5849 5851 5852 5853 5854 5855 5855 5856 5856 5856 5855 5855 5854 5853 5852 5850 5849 5847 5844 5842 5839 5836
5759 5766 5772 5778 5784 5789 5794 5799 5804 5808 5813 5817 5820 5824 5827 5830 5833 5836 5838 5841 5843 5845 5846 5848 5849 5850 5851 5852 5852 5852 5852 5852 5851 5851 5850 5848 5847 5845 5843 5840 5838 5835 5832
5750 5757 5763 5770 5776 5781 5787 5792 5797 5802 5806 5810 5814 5818 5822 5825 5828 5831 5834 5836 5838 5840 5842 5844 5845 5846 5847 5848 5848 5848 5848 5848 5848 5847 5846 5844 5843 5841 5839 5836 5834 5831 5828
5741 5748 5755 5761 5767 5773 5779 5785 5790 5795 5799 5804 5808 5812 5816 5819 5823 5826 5828 5831 5833 5836 5838 5839 5840 5842 5843 5843 5844 5844 5844 5844 5843 5843 5842 5840 5838 5836 5834 5832 5829 5826 5823
5732 5739 5746 5752 5758 5765 5771 5777 5782 5787 5792 5797 5801 5806 5810 5813 5817 5820 5823 5826 5828 5831 5833 5834 5836 5837 5838 5839 5839 5840 5840 5839 5839 5838 5837 5836 5834 5832 5830 5827 5824 5821 5818
5721 5729 5736 5743 5750 5756 5762 5768 5774 5780 5785 5790 5794 5799 5803 5807 5811 5814 5817 5820 5823 5825 5827 5829 5831 5832 5833 5834 5835 5835 5835 5835 5834 5833 5832 5831 5829 5827 5825 5822 5819 5816 5812
5711 5719 5727 5734 5741 5748 5754 5760 5766 5772 5777 5782 5787 5792 5797 5801 5804 5808 5811 5814 5817 5820 5822 5824 5825 5827 5828 5829 5829 5830 5830 5830 5829 5828 5827 5826 5824 5822 5819 5817 5813 5810 5807
5701 5709 5717 5725 5732 5739 5745 5751 5758 5764 5769 5775 5780 5785 5790 5794 5798 5802 5805 5808 5811 5814 5816 5818 5820 5821 5822 5823 5824 5824 5825 5824 5824 5823 5822 5820 5819 5816 5814 5811 5808 5804 5801
5691 5700 5708 5716 5723 5730 5737 5744 5750 5756 5762 5768 5773 5777 5782 5787 5791 5795 5799 5802 5805 5807 5809 5812 5813 5815 5816 5817 5818 5819 5819 5819 5818 5817 5816 5815 5813 5811 5808 5805 5802 5798 5795
5682 5691 5699 5707 5715 5722 5730 5736 5742 5748 5754 5759 5764 5770 5775 5780 5784 5788 5792 5795 5798 5801 5803 5805 5807 5809 5810 5811 5812 5813 5813 5813 5812 5811 5810 5809 5807 5804 5802 5799 5795 5792 5788
5672 5682 5691 5699 5707 5714 5721 5727 5733 5739 5745 5751 5757 5763 5768 5772 5777 5781 5784 5788 5791 5794 5796 5798 5800 5802 5804 5805 5806 5807 5807 5807 5806 5805 5804 5802 5800 5798 5795 5792 5789 5785 5781
5663 5673 5681 5690 5697 5705 5712 5718 5725 5732 5739 5745 5750 5755 5760 5764 5769 5773 5777 5781 5784 5787 5789 5791 5794 5795 5797 5798 5799 5800 5800 5800 5799 5798 5797 5796 5794 5791 5788 5785 5782 5778 5774
5653 5662 5671 5679 5688 5696 5703 5711 5717 5724 5731 5736 5741 5747 5752 5757 5761 5765 5770 5773 5776 5779 5782 5784 5787 5788 5790 5791 5792 5792 5793 5792 5792 5792 5790 5789 5787 5784 5781 5778 5775 5771 5766
5642 5652 5661 5669 5678 5687 5694 5702 5709 5716 5722 5728 5733 5739 5744 5749 5753 5758 5762 5765 5769 5772 5775 5777 5779 5781 5783 5784 5785 5785 5786 5785 5785 5784 5783 5781 5779 5777 5774 5771 5767 5763 5759
Wind_Speed
28 28 26 25 24 22 21 19 18 17 15 14 13 12 10 8 7 6 5 5 4 4 4 5 5 6 6 6 6 7 7 8 9 9 9 10 11 11 11 12 13 14 14
30 29 28 27 25 24 22 21 19 18 16 15 14 13 12 10 9 8 7 6 5 5 5 5 5 6 6 6 6 7 8 8 9 9 10 10 11 11 12 13 13 14 15
32 31 29 28 27 26 24 23 21 19 18 17 16 14 13 12 11 9 8 7 6 6 5 5 6 6 6 6 6 7 8 8 9 10 10 11 11 12 12 13 14 15 16
34 32 31 30 29 27 26 24 23 21 20 19 17 16 15 13 12 11 9 9 8 7 6 6 6 7 7 7 7 8 8 9 9 10 11 12 12 12 13 13 15 16 17
35 34 33 32 31 29 28 26 25 23 21 20 19 18 16 14 13 12 11 10 9 8 8 7 7 7 7 7 8 8 9 9 9 10 11 12 12 12 13 14 15 17 18
36 36 35 33 33 31 29 28 26 25 23 22 20 19 17 16 15 14 12 11 11 10 9 8 8 8 8 8 8 9 9 9 10 11 12 12 12 13 14 15 16 18 19
38 37 36 36 34 33 31 29 28 27 25 24 22 21 19 18 17 15 14 13 12 11 10 9 9 9 9 9 9 9 9 10 11 11 12 12 13 13 14 16 17 19 20
40 39 38 37 36 35 33 31 30 28 27 25 24 22 21 20 19 17 16 15 14 13 11 11 11 10 10 9 10 10 10 10 11 11 12 12 13 14 15 17 18 20 21
42 41 39 38 37 36 34 33 31 30 28 27 26 24 23 21 20 19 18 17 15 14 13 12 12 12 11 11 11 11 11 11 11 12 13 14 14 15 16 18 20 21 22
44 43 41 40 39 37 36 34 33 32 30 29 27 26 24 23 22 21 19 18 17 16 15 14 13 13 12 12 12 12 12 12 12 13 14 15 15 16 18 19 21 22 23
45 44 43 41 40 39 37 36 35 33 32 30 29 27 26 25 24 22 21 20 19 18 17 16 15 14 14 13 13 13 13 13 13 14 15 16 16 17 19 20 22 23 24
46 45 44 43 41 40 39 38 36 34 33 32 31 29 27 26 25 24 23 21 20 19 18 17 17 16 15 15 14 14 14 14 15 15 16 17 18 19 20 21 23 24 25
47 47 45 44 43 42 40 39 37 36 35 34 32 30 29 27 27 26 24 23 22 20 20 19 18 17 17 16 15 15 15 15 16 16 17 18 19 20 21 23 24 26 27
49 48 47 46 45 43 42 40 39 38 36 35 34 32 31 29 28 27 26 24 23 22 21 20 20 19 18 17 17 17 17 17 17 18 19 19 20 21 22 24 25 27 28
49 49 48 47 46 45 43 42 40 39 38 37 35 34 32 31 30 28 27 26 25 23 23 22 21 21 20 19 19 18 18 18 19 19 20 21 22 23 24 25 27 28 29
50 49 49 48 47 46 45 43 42 41 40 39 37 35 34 33 31 30 29 27 26 25 24 23 23 22 22 21 20 20 20 20 20 21 21 22 23 24 25 27 28 29 31
51 50 49 49 48 47 46 45 44 42 41 40 39 37 36 34 33 31 30 29 27 26 26 25 24 23 23 22 22 21 21 21 22 22 22 23 24 25 26 28 29 31 32
53 51 50 49 49 48 47 46 45 43 42 42 41 39 37 36 34 33 31 30 29 28 27 27 26 25 24 24 24 23 23 23 23 23 23 24 25 26 28 29 30 32 34
55 53 51 50 49 48 47 46 45 44 43 43 42 40 38 37 36 34 33 32 30 29 29 28 27 27 26 26 25 25 24 24 24 24 25 26 27 28 29 31 32 33 35
57 55 53 51 51 50 49 47 46 45 44 44 43 42 40 39 37 35 34 33 31 30 30 30 29 28 28 27 27 26 26 25 26 26 26 27 28 29 31 32 33 35 36
58 56 55 52 50 50 49 47 46 45 44 43 43 43 42 40 38 37 35 34 33 32 31 31 30 29 29 29 28 28 27 27 27 28 28 29 30 31 32 34 35 36 37
59 57 55 54 51 49 48 48 47 46 45 44 44 43 43 41 40 38 36 35 34 33 32 32 31 31 31 30 29 29 29 29 29 30 30 30 31 33 34 35 36 37 38
59 57 55 53 52 50 48 49 48 46 46 45 44 43 43 42 41 39 38 37 35 34 33 33 32 31 31 31 31 31 31 31 31 31 32 32 33 34 35 37 38 38 40
59 57 56 54 52 51 50 49 47 46 45 43 43 43 43 43 42 41 39 38 36 35 34 34 33 33 33 32 32 32 32 33 33 33 33 34 34 35 36 38 38 40 41
60 58 56 55 53 52 51 49 47 46 45 45 44 44 44 43 43 42 40 39 37 36 35 35 34 34 33 33 33 33 33 33 33 33 34 35 35 36 37 38 39 41 42
61 60 58 56 54 53 51 49 47 46 45 45 44 44 44 43 42 41 40 39 38 36 36 35 35 34 34 34 34 34 34 34 34 34 35 35 36 37 38 39 40 42 43
Wind_Direction
229 229 227 225 223 222 221 219 219 219 219 219 221 223 226 231 238 246 251 253 263 280 298 312 320 323 324 326 330 333 335 338 341 341 339 339 340 340 339 339 339 338 337
230 229 228 226 225 223 222 221 221 221 221 222 223 225 228 233 238 243 247 248 254 268 282 297 306 309 313 317 321 323 327 332 334 336 337 335 337 337 337 336 337 337 336
229 229 229 228 226 224 223 222 222 222 223 223 224 225 229 235 238 241 243 243 247 258 272 287 296 299 305 308 312 316 320 323 328 332 334 334 334 335 336 336 337 336 336
228 227 227 227 226 224 223 222 223 223 224 224 225 227 230 234 236 237 239 241 244 253 267 281 291 293 296 300 304 309 314 316 323 328 330 330 332 334 335 335 336 336 335
228 226 225 226 226 224 223 223 223 223 225 225 226 228 230 233 233 234 236 239 244 252 264 276 283 286 288 293 297 304 308 312 319 324 326 329 331 333 334 335 336 336 335
228 226 225 224 225 224 223 223 223 223 225 226 227 228 231 232 232 233 235 239 243 251 260 271 276 279 281 287 294 299 304 310 315 320 324 328 330 331 333 335 336 336 336
227 226 224 224 224 224 224 223 224 224 225 226 227 229 230 232 232 233 235 238 244 249 256 265 269 273 277 283 289 293 299 305 312 318 323 326 328 329 332 333 334 336 336
226 225 224 223 223 223 223 224 225 225 225 226 227 229 230 232 233 234 235 239 244 248 254 260 265 269 272 279 284 289 296 302 308 315 321 323 325 327 330 331 333 335 336
225 225 224 223 222 223 223 224 225 225 225 226 228 230 230 232 233 235 236 239 243 247 252 257 261 266 267 273 279 285 291 297 303 310 316 320 322 325 327 329 331 333 334
225 224 224 223 222 222 223 224 225 226 226 227 228 230 230 231 233 235 237 240 242 246 250 255 259 263 265 270 276 281 287 293 299 305 312 317 319 322 325 327 329 331 332
226 225 223 223 222 222 223 224 225 226 227 227 228 229 230 231 233 234 237 240 242 245 249 253 256 260 263 267 273 278 285 290 295 301 308 314 317 320 323 326 328 329 330
225 225 224 223 222 222 223 223 225 226 227 227 228 229 230 232 233 235 237 239 241 244 247 251 255 258 261 265 270 275 283 288 293 299 305 311 314 318 321 323 326 327 328
224 224 223 223 223 223 223 224 225 226 227 227 227 228 230 232 233 235 237 239 242 244 246 250 254 257 260 263 268 273 280 286 290 296 302 308 312 314 318 320 323 325 326
223 223 222 222 223 223 223 224 225 225 226 227 227 228 230 232 234 236 238 240 242 244 246 249 253 256 258 262 267 272 277 283 289 294 299 305 309 312 315 318 321 323 325
222 222 222 222 223 223 224 224 225 225 226 226 227 229 230 232 234 237 239 240 243 244 246 249 252 256 258 261 266 271 276 282 287 292 297 302 306 309 313 316 318 320 323
221 222 222 222 223 224 224 224 225 225 225 225 226 228 230 232 234 237 238 240 243 245 246 249 253 256 258 261 265 270 275 280 286 290 295 300 305 308 311 315 317 319 320
221 221 221 222 223 224 224 225 225 225 226 226 226 228 230 232 234 236 238 240 242 244 246 249 253 255 258 261 264 269 274 279 284 288 293 298 303 306 309 313 316 318 319
220 220 220 222 223 223 224 225 225 225 226 226 227 228 230 232 234 236 238 241 242 245 247 249 253 256 258 261 264 269 273 278 282 286 291 296 301 304 308 311 314 316 318
219 219 220 221 222 223 224 224 225 225 225 226 227 228 230 232 234 236 238 241 243 246 248 250 253 256 258 261 264 268 273 277 281 285 290 294 299 303 306 310 312 314 316
219 219 219 220 222 223 224 224 224 224 225 226 227 228 230 232 234 236 238 241 244 246 249 250 252 255 258 260 263 267 272 276 280 285 288 293 297 302 305 308 310 312 314
218 218 219 219 221 222 224 224 224 225 226 226 228 229 230 232 234 236 239 242 244 247 249 250 252 255 258 260 263 266 271 275 279 284 287 291 296 300 304 306 308 310 312
218 218 218 220 220 221 223 224 224 225 225 226 227 229 231 232 234 237 239 242 245 248 250 252 253 255 257 260 263 267 271 274 278 283 286 290 294 298 302 304 307 309 311
217 218 218 219 220 221 222 224 224 225 225 226 227 229 231 232 234 237 239 243 245 248 250 252 254 256 258 260 263 267 271 274 278 281 285 289 294 297 301 303 306 307 309
217 218 218 219 220 220 221 223 225 225 226 226 227 229 231 233 234 237 240 242 245 247 249 252 254 256 258 260 263 267 270 274 277 281 284 289 293 297 300 302 304 306 308
217 218 218 219 219 220 221 222 224 225 225 225 227 229 231 233 236 238 240 242 244 246 249 252 254 256 258 260 263 266 270 273 276 280 284 288 292 295 298 301 303 305 306
215 217 218 218 219 219 221 222 224 224 225 226 227 230 231 233 235 238 240 241 244 246 248 252 254 255 257 260 263 266 269 273 276 280 283 287 291 295 298 300 302 304 306